Starlink 31057

operational
NORAD ID: 58545 Int'l Des: 2023-192 Owner: SPXS Country: US Constellation: starlink
LEOCIRCULAR

About Starlink 31057

Description loading...

Live Position

Loading 3D Globe...

Upcoming Passes

Altitude History

Altitude vs Time

uPlot chart will show altitude changes over time

Two-Line Element Set

1 58545U 23192Q 25305.28870828 -.00000212 00000-0 49758-5 0 9996
2 58545 53.1613 299.3606 0001237 94.3657 265.7485 15.30194344106323
Epoch: Nov 1, 2025 • Age: 17 hours

Current Status

Altitude 483.5 km
Velocity 7.62 km/s
Sub-Earth Point -26.32°S, 127.49°W
Launch Date Dec 8, 2023
Age 1.9 years
Type internet

Technical Details

Classification Payload
Mass 730.00 kg
Dry Mass 700.00 kg
Total Mass 730.00 kg
Length 0.30 m
Diameter 4.10 m
Span 29.00 m
Shape Box + pan
Manufacturer SPXS
Bus Type Starlink V2M
Phase Status In Orbit
Owner/State SPXS/US

Large Constellations

Loading constellations...